OBJECT H, 42832

Orbit data source: Space-Track

You're viewing an uncataloged RSO

Recently launched and/or uncataloged RSOs may have evolving metadata. Metadata may include the following, but is not limited to: Owner, Manufacturer, Bus, Motor, and Mission.

OBJECT H, 42832 is a satellite in SSO that was launched on Fri, 14 Jul 2017 UTC via a SOYUZ-2-1A launch vehicle from the Tyuratam Missile And Space Complex (TTMTR). Unknown objects in Earth's orbit typically refer to objects detected orbiting the Earth but have not yet been identified or cataloged. These objects could be anything from previously untracked satellites, spent rocket stages, debris from satellite collisions, or even natural meteoroids temporarily captured by Earth's gravity.

Loading next visibility...
Identifier
42832, 2017-042H
Orbit
SSO
Country
Flag of TBDTBD
Related business
None
Manufacturer
Unknown
Mission
Non-operational Amateur Technology
Bus & Motor
Unknown
Mass
Unknown
Launch date (UTC)
2017-07-14 (9 years ago)
Launch vehicle
SOYUZ-2-1A
Launch site
Tyuratam Missile And Space Complex (TTMTR)
Object type
Unknown
Shape & HBR
Box, 0.1 m
Radar Cross Section
0.015 m², Medium (>0.1 m² and < 1m²)

Expand to show TLE details & history
Last TLE update: 1 day ago

TLE from 1 day ago
0 OBJECT H
1 42832U 17042H   26236.19466737  .00004206  00000-0  27277-3 0  9995
2 42832  97.4240  34.4464 0008753 234.3126 125.7289 15.08586673497199
Epoch: 2026-08-24T04:40Z
TLE epoch observation values (Epoch: 2026-08-24T04:40:19.260Z)
Latitude
-0.00002°
Longitude
-8.11371°
Altitude
547.133 km
Speed
7.587 km/s
True Right ascension
02h 17m 47s
True Declination
0° 00' 00"
Sunlit
Object was in full shadow at epoch
Visualization orbit readout
Latitude
Unknown
Longitude
Unknown
Altitude
Unknown
Speed
Unknown
Apparent Right ascension
Unknown
Apparent Declination
Unknown
Sunlit
N/A
Visualization observer readout
Local Sidereal Time
01:50:29
Azimuth
Unknown
Elevation
Unknown
Doppler factor
Unknown
Orbital elements
Apogee altitude
543.553 km
Perigee altitude
531.446 km
Semi-major axis
6,915.637 km
Eccentricity
0.00088
Inclination
97.424°
RAAN
34.4464°
Arg. of periapsis
234.3126°
True anomaly
125.81027°
Mean anomaly
125.7289°
Eccentric anomaly
125.76959°
Mean motion
3.77394 °/min
Orbital period
95.39 mins
BSTAR
0.00027277
Loading maneuver chart data...
Computing Atmospheric mass density...
Loading historical data...
Loading historical data...
Loading historical data...
Loading historical data...
Loading historical data...
Loading historical data...
Loading historical data...

Documentation

Showing up to 5 results
|